Location: Davayat
(45.9471°N, 3.1105°E)
Time: 17:22:43
(UTC+00:00)

Cosmos 1933 Rocket - Pass Details

Date: 01 December 2020
Orbit: 606 x 631 km, 82.5° (Epoch: 17 January)

Event Time Altitude Azimuth Distance (km) Brightness Sun altitude
Rises 17:36:27 0° 352° (N) 2,936 6.9 -15.5°
Reaches altitude 10° 17:38:43 10° 355° (N) 2,022 6.1 -15.9°
Maximum altitude 17:43:12 73° 80° (E) 664 3.5 -16.6°
Drops below altitude 10° 17:47:38 10° 165° (SSE) 1,999 6.2 -17.4°
Sets 17:49:51 0° 168° (SSE) 2,898 7.0 -17.8°
